RH
94 94 99 88 80 78 94 74 76 59 68 56 48 40 46 52 55 58 60 66 69 70 70 64 60 49 40 31 26 25 25 25 24 25 25 26 25 23 22 22 23 26 30 33
99 85 87 94 85 81 82 88 88 85 90 38 39 44 55 57 56 56 58 63 66 66 68 65 61 49 38 31 27 25 26 26 26 27 26 26 25 23 22 22 27 32 35 34
100 88 84 95 79 84 92 89 88 97 66 46 44 44 56 63 53 54 56 64 67 66 65 63 57 45 36 30 28 27 28 28 28 27 27 26 24 23 22 27 33 35 34 34
100 94 84 47 57 72 84 78 82 48 47 49 58 74 76 74 60 62 63 69 69 67 65 58 51 42 36 30 28 28 29 28 28 27 26 25 24 24 27 33 36 36 35 35
90 86 60 43 43 61 62 62 48 49 64 66 66 60 72 80 74 75 78 75 69 62 59 52 46 38 33 29 28 29 29 28 27 26 25 25 25 26 33 37 37 37 36 36
91 83 68 45 41 38 38 61 43 55 60 63 58 59 75 78 73 70 64 61 59 54 49 44 40 36 33 31 31 30 28 27 27 26 26 26 27 33 37 38 38 37 39 40
89 95 78 54 42 41 54 55 44 53 53 62 56 64 78 76 73 66 60 56 49 46 43 40 36 34 32 32 31 29 27 27 26 26 26 28 33 36 40 39 39 41 44 48
81 93 92 49 38 37 46 52 61 67 71 84 82 79 78 72 70 66 64 56 47 42 38 34 33 34 32 31 29 27 27 26 27 27 27 34 36 40 40 42 46 49 53 55
83 79 58 52 47 53 52 61 64 71 75 74 77 76 72 74 70 66 57 49 44 40 39 36 34 34 33 31 28 28 27 27 27 27 36 37 42 42 43 48 52 57 60 60
66 57 54 53 52 52 51 62 67 68 69 66 73 68 71 69 67 62 50 45 40 40 40 36 34 36 36 30 29 27 27 28 29 32 44 42 44 45 52 56 58 64 63 64
66 58 55 54 52 61 68 66 67 68 64 65 65 69 68 69 67 62 54 45 41 41 38 36 33 33 33 30 28 28 28 29 31 39 44 45 46 51 58 58 61 62 63 64
76 56 55 56 63 63 64 68 68 69 73 72 65 71 71 73 67 62 60 49 48 43 36 33 33 33 32 30 28 28 28 31 40 45 46 48 51 52 49 61 62 62 63 64
52 57 65 68 66 61 69 70 67 69 69 77 77 74 74 78 73 62 60 55 53 45 41 36 36 36 33 31 29 28 30 40 44 47 51 53 56 57 63 58 63 63 62 65
64 60 66 60 69 68 67 68 68 69 70 72 76 76 78 83 78 72 72 62 54 44 40 35 35 35 34 32 30 30 35 45 49 53 53 56 59 60 63 68 68 66 63 64
68 63 65 69 67 69 64 62 68 72 73 75 73 75 74 79 80 74 65 53 46 41 36 35 35 35 35 33 31 35 43 48 55 54 55 62 63 62 62 66 66 66 63 62
79 70 66 65 66 63 61 62 67 72 72 74 77 74 71 68 64 57 49 43 41 41 37 35 34 36 35 33 36 44 46 44 62 62 63 67 66 62 65 64 64 63 64 67
77 86 81 78 72 68 62 60 64 70 77 76 79 74 65 60 54 50 46 44 42 39 37 35 36 37 35 40 45 47 46 50 67 64 68 68 59 63 59 61 64 66 69 71
64 65 62 59 60 62 68 68 70 73 76 84 79 70 67 62 61 56 48 46 42 41 39 38 37 37 41 47 51 51 55 58 61 67 67 58 60 57 59 64 68 71 74 77
68 66 58 54 57 63 69 76 79 86 88 84 81 80 72 65 59 53 45 43 43 44 44 44 42 44 48 52 62 62 61 55 60 63 58 59 58 60 66 69 72 76 81 85
61 59 62 71 65 65 79 83 87 91 86 80 80 76 74 66 57 50 45 47 44 42 44 46 46 48 51 53 74 65 49 55 59 56 58 63 63 69 70 74 77 84 87 86
66 66 71 74 83 80 82 83 84 89 85 76 73 68 60 54 49 46 50 57 55 49 49 50 53 55 59 74 71 49 50 55 58 62 64 67 70 73 78 83 89 90 93 96
67 66 72 74 77 88 78 75 77 78 76 72 65 58 53 53 50 50 47 51 62 53 51 52 55 67 69 76 56 50 56 60 62 65 68 72 78 83 87 89 93 98 99 99
59 63 67 71 76 81 72 68 66 63 61 55 53 52 53 52 51 58 68 64 62 53 44 47 63 68 77 57 50 55 59 65 69 70 75 81 86 87 89 94 99 99 100 100
62 64 70 71 68 66 70 66 59 55 53 52 50 49 51 61 63 59 61 67 67 42 39 61 68 71 72 52 55 62 70 70 68 74 82 83 83 90 93 94 99 100 100 100
66 69 68 67 69 70 74 65 60 59 57 57 55 53 52 53 52 51 47 53 60 39 38 50 59 70 52 56 62 71 67 64 74 82 81 87 92 93 90 94 95 98 100 96
66 66 69 63 66 66 64 61 65 64 60 61 57 52 47 44 42 40 41 39 42 43 45 45 48 54 55 58 68 63 66 73 78 84 93 93 92 91 95 95 95 96 99 100
80 75 72 71 69 66 63 64 64 66 59 54 52 47 43 40 42 42 42 43 46 49 49 48 47 52 54 64 65 71 77 82 90 96 95 92 93 94 94 96 98 99 97 94
Wind_Speed
18 17 14 12 20 21 19 9 12 5 16 27 15 10 12 10 11 14 14 14 14 13 11 16 20 25 25 23 22 21 19 16 13 11 8 5 2 2 4 7 10 14 17 20
13 12 16 8 23 15 12 7 7 11 14 19 3 6 7 12 14 15 16 15 13 13 12 15 20 24 27 24 22 20 18 15 12 9 6 3 1 3 6 9 13 17 19 20
4 7 13 6 19 13 5 8 14 13 21 5 4 6 5 8 15 17 16 15 15 14 13 18 23 29 27 24 21 19 16 13 10 7 5 2 2 4 8 12 16 18 20 21
2 4 3 1 17 22 24 21 21 13 4 5 7 5 7 6 6 8 11 11 11 11 16 22 26 26 25 23 20 18 15 12 9 6 3 1 3 6 10 14 17 19 21 22
2 2 3 3 5 8 10 9 5 6 7 7 7 5 8 9 5 5 7 8 11 18 23 27 28 27 25 22 19 16 13 10 7 4 2 2 5 9 12 16 18 20 21 23
4 3 2 2 2 2 1 3 5 8 12 12 5 4 2 4 8 12 12 16 20 25 28 29 27 26 24 21 17 14 10 8 5 2 2 4 7 11 14 15 17 20 23 22
1 2 6 5 2 1 4 5 3 9 12 7 5 1 9 7 10 11 16 20 25 25 24 27 25 24 22 18 14 11 9 6 4 2 3 6 8 12 15 17 20 23 23 22
3 1 5 1 2 1 3 2 3 5 5 10 13 15 12 11 10 12 13 17 23 23 23 22 21 22 20 16 13 10 8 6 4 3 4 6 10 14 16 18 21 22 22 21
7 5 2 1 0 2 1 4 4 7 10 17 16 13 11 9 10 8 13 16 20 23 23 18 18 18 18 14 11 9 7 5 3 3 4 9 12 14 18 19 21 22 17 18
2 1 1 1 2 3 3 4 7 12 14 14 18 12 11 9 9 8 13 15 21 22 19 17 15 14 15 13 9 7 6 3 2 4 7 10 11 14 16 18 20 17 17 18
3 1 2 2 1 5 8 11 12 9 11 14 16 12 11 9 8 9 14 17 21 20 19 17 16 16 13 10 8 7 5 2 3 5 9 11 14 14 15 16 17 19 20 20
5 7 5 4 7 8 12 11 12 16 11 7 9 12 10 8 9 13 14 19 18 18 19 17 16 14 11 8 6 5 3 2 4 7 10 12 15 20 19 14 16 17 18 19
3 5 3 7 7 3 11 11 10 12 13 13 7 11 9 7 8 16 17 19 20 20 19 17 15 13 10 7 5 3 2 4 7 9 11 14 16 18 17 22 16 17 18 19
9 11 7 2 5 9 15 13 16 15 14 13 15 15 15 13 15 16 15 17 18 19 17 16 14 11 8 5 3 2 3 5 7 9 12 13 14 16 18 16 16 19 19 18
4 4 8 14 14 12 13 15 15 12 10 10 13 14 15 11 10 15 17 19 20 18 16 14 13 11 7 4 2 2 4 6 10 11 11 11 14 17 18 17 17 18 19 18
8 11 13 16 15 14 15 13 16 10 9 8 8 12 16 20 20 19 19 20 20 15 14 13 11 9 5 2 1 2 5 8 9 10 12 14 16 18 16 16 16 17 18 19
16 6 9 10 13 12 11 10 13 12 9 10 12 19 22 20 19 17 15 12 13 13 11 11 10 6 3 1 2 5 8 9 10 11 13 13 16 15 16 15 15 17 18 19
7 8 7 17 18 15 11 10 10 14 12 17 21 21 18 15 11 15 15 16 16 13 10 9 7 4 2 1 4 6 8 11 12 12 12 15 15 17 17 17 16 17 19 19
10 13 14 14 13 14 13 11 13 17 21 22 20 15 17 18 19 18 16 15 13 12 9 7 5 3 1 2 5 7 10 11 12 12 13 13 16 17 17 16 16 17 18 18
12 11 17 13 19 21 12 16 20 19 21 23 22 19 16 17 18 17 14 11 7 7 9 5 3 1 1 4 5 9 11 11 11 13 14 14 17 15 16 15 16 16 18 20
14 15 16 15 12 18 19 22 22 18 21 23 19 16 18 18 17 19 18 12 9 8 6 3 1 0 5 6 8 11 10 10 11 13 15 16 16 16 14 15 15 18 20 19
14 14 15 18 17 16 22 24 25 24 22 21 22 22 22 18 17 13 9 13 10 5 4 2 1 3 5 6 9 9 10 11 13 15 17 17 15 15 15 16 20 22 20 23
12 17 20 19 18 19 24 24 23 24 23 23 23 22 20 19 18 16 8 9 6 4 2 2 3 4 4 7 9 10 11 13 15 16 16 16 15 16 18 23 22 23 22 20
19 21 21 23 26 23 12 17 22 23 23 21 21 21 23 20 15 12 13 9 6 3 2 3 3 4 6 9 10 12 12 15 16 15 17 16 19 20 22 25 23 21 22 21
21 22 23 21 15 12 20 25 26 24 25 23 19 16 15 9 7 12 9 7 5 2 2 3 5 6 9 10 12 12 15 17 16 17 18 18 21 24 26 23 22 21 21 23
21 16 16 17 20 21 21 20 18 17 20 19 18 17 16 15 13 10 7 5 3 2 4 6 8 10 11 13 13 16 17 17 17 18 19 22 23 22 22 22 21 22 22 23
20 22 20 18 17 18 20 20 20 16 17 19 19 14 13 12 9 7 5 3 3 5 6 8 10 11 14 14 17 16 17 16 17 20 20 20 20 21 20 21 21 22 23 22
Wind_Direction
255 237 212 241 193 192 199 186 197 230 218 258 242 182 179 159 146 149 158 162 165 159 155 151 148 158 160 157 159 160 156 155 153 152 149 139 111 26 357 352 352 348 345 342
279 255 182 205 182 171 170 167 236 260 294 251 107 95 124 155 156 162 168 167 163 156 149 149 148 152 160 158 158 162 157 155 152 150 146 137 68 3 354 355 350 348 348 347
337 109 137 148 169 181 201 223 192 221 238 163 83 95 125 158 168 171 170 163 160 157 151 146 150 159 159 157 157 158 153 150 150 149 147 125 27 1 357 353 349 347 347 349
22 155 81 199 175 179 196 207 214 217 109 117 120 95 54 12 156 143 143 141 135 130 126 141 155 156 152 153 153 151 149 148 148 148 135 60 10 358 354 350 348 346 345 346
43 309 282 101 99 158 189 195 221 133 108 106 141 103 28 14 58 105 108 106 114 128 135 143 149 149 147 149 150 147 144 144 142 134 105 23 358 355 354 345 342 343 342 342
352 47 50 264 335 73 142 298 163 146 153 159 182 111 236 15 80 86 89 103 111 119 129 138 145 149 146 145 144 141 140 137 135 119 58 8 355 352 347 342 337 340 340 346
6 329 294 259 293 54 112 238 148 168 169 150 136 204 128 106 71 81 97 104 113 120 127 140 148 149 140 141 137 138 139 137 128 95 30 358 351 346 343 344 341 342 344 346
152 160 289 282 357 182 208 48 119 114 109 94 109 103 104 105 103 105 105 103 115 115 127 140 146 144 137 134 138 141 139 133 115 61 13 357 347 345 348 347 345 346 345 340
180 211 239 331 219 19 134 124 115 108 121 124 119 117 118 120 115 108 111 111 120 123 129 136 143 144 138 140 144 143 137 115 82 29 14 357 354 351 347 350 349 345 335 331
120 286 96 135 54 50 72 90 97 118 126 129 125 127 121 121 120 114 116 118 128 126 123 128 140 144 142 144 148 142 127 114 53 17 355 352 356 357 352 351 346 337 331 327
278 278 48 271 193 129 92 102 99 82 113 124 124 124 128 126 122 124 126 132 141 136 136 139 143 141 142 144 146 138 130 92 23 358 347 351 355 358 353 348 339 333 330 329
221 196 172 197 158 137 126 127 127 121 104 86 125 123 123 122 127 132 133 144 144 145 143 144 146 142 141 142 145 134 108 37 2 349 353 351 350 348 353 342 336 333 333 333
200 107 76 104 102 76 118 124 116 113 122 119 98 116 115 117 119 133 143 152 153 155 153 151 147 142 143 140 131 114 78 13 358 352 348 348 350 348 334 341 336 338 338 335
124 107 68 145 146 114 112 106 98 91 95 108 110 104 111 112 123 131 141 154 157 152 151 152 149 144 142 140 129 88 26 8 355 350 349 349 344 340 337 326 326 329 335 333
27 45 119 115 111 110 116 117 105 105 109 98 108 119 123 120 122 131 139 142 144 145 146 150 149 144 145 138 106 40 11 2 352 349 346 339 339 339 338 333 326 323 326 331
84 97 119 122 124 126 123 120 120 122 121 119 118 119 127 130 130 132 137 144 143 148 150 150 147 145 139 127 70 17 6 357 352 342 343 343 341 339 338 333 327 324 323 327
114 89 110 120 136 136 133 131 133 137 130 130 131 133 131 128 127 130 137 147 145 141 145 147 142 144 145 126 11 5 355 351 346 342 342 339 337 339 337 329 323 319 319 327
87 99 124 145 144 135 124 123 131 136 137 136 137 137 133 135 139 139 135 135 129 124 131 139 142 143 136 51 356 346 343 341 342 342 338 339 339 335 338 332 321 319 322 327
121 122 123 128 130 127 129 129 128 128 134 140 137 137 145 144 144 142 139 134 135 133 136 136 141 141 115 20 341 336 337 339 339 339 339 335 334 339 336 327 322 323 325 328
106 110 114 111 122 130 123 124 129 129 140 141 134 127 125 138 141 137 137 122 134 141 143 145 149 135 1 343 333 331 338 340 341 340 340 333 336 332 326 324 325 325 326 323
125 124 121 118 107 110 121 132 131 130 140 141 134 131 130 135 139 137 126 111 122 134 143 153 157 43 351 340 331 340 344 344 342 340 336 336 331 327 319 320 323 323 321 320
133 128 122 122 120 108 123 132 132 134 135 134 133 131 128 128 134 124 128 137 137 148 142 122 83 359 343 316 335 347 346 343 341 339 337 335 326 318 316 320 321 320 316 317
125 124 123 125 125 120 123 128 134 135 132 136 135 137 133 135 137 128 124 137 132 125 115 85 16 352 326 334 345 348 345 343 341 338 334 331 324 317 317 323 322 316 317 315
122 118 114 118 119 116 109 117 129 131 132 134 138 142 140 128 107 114 121 120 116 118 93 37 4 359 337 345 347 346 346 340 335 332 326 318 321 322 322 323 319 315 314 319
119 120 123 124 116 113 121 127 123 124 125 123 125 128 131 129 133 133 130 122 109 96 45 16 3 356 349 350 346 343 336 333 331 322 319 322 321 320 320 323 321 321 315 315
127 125 121 123 130 135 135 134 127 130 125 114 116 118 114 115 120 124 122 120 103 44 15 5 360 352 349 343 338 334 332 331 330 326 320 317 319 323 323 323 323 324 323 323
106 113 112 109 120 133 138 137 132 131 135 131 122 124 121 120 119 120 114 90 49 23 8 359 354 348 341 338 333 331 331 332 327 322 317 323 327 326 327 327 326 324 323 323